This is the latest recevied weather packets stored in our database for station/object AA7VG. If no packets are shown the sender has not sent any weather packets the latest 10 day(s).
| Time | Temp. | Humidity | Pressure | Rain* | Wind** | Luminosity | Snow |
|---|---|---|---|---|---|---|---|
| 1777997631 | 8.89° C | 36% | 1015.3 hPa | 0 mm | - | - | - |
| 1777997329 | 8.33° C | 38% | 1015.6 hPa | 0 mm | - | - | - |
| 1777997027 | 8.33° C | 39% | 1015.6 hPa | 0 mm | - | - | - |
| 1777996723 | 8.33° C | 38% | 1015.6 hPa | 0 mm | - | - | - |
| 1777996419 | 7.78° C | 39% | 1015.5 hPa | 0 mm | - | - | - |
| 1777996116 | 7.78° C | 40% | 1015.6 hPa | 0 mm | - | - | - |
| 1777995812 | 7.78° C | 40% | 1015.8 hPa | 0 mm | - | - | - |
| 1777995508 | 7.22° C | 39% | 1015.5 hPa | 0 mm | - | - | - |
| 1777995206 | 7.22° C | 42% | 1015.8 hPa | 0 mm | - | - | - |
| 1777994903 | 7.22° C | 42% | 1015.8 hPa | 0 mm | - | - | - |
| 1777994600 | 6.67° C | 42% | 1015.6 hPa | 0 mm | - | - | - |
| 1777994300 | 6.67° C | 42% | 1015.8 hPa | 0 mm | - | - | - |
| 1777993997 | 6.11° C | 43% | 1015.9 hPa | 0 mm | - | - | - |
| 1777993694 | 6.11° C | 43% | 1015.8 hPa | 0 mm | - | - | - |
| 1777993391 | 6.11° C | 44% | 1015.8 hPa | 0 mm | - | - | - |
| 1777993085 | 5.56° C | 45% | 1015.8 hPa | 0 mm | - | - | - |
| 1777992784 | 5.56° C | 45% | 1016.1 hPa | 0 mm | - | - | - |
| 1777992481 | 5.56° C | 45% | 1015.8 hPa | 0 mm | - | - | - |
| 1777992180 | 5° C | 49% | 1015.6 hPa | 0 mm | - | - | - |
| 1777991876 | 4.44° C | 49% | 1015.9 hPa | 0 mm | - | - | - |
| 1777991574 | 4.44° C | 49% | 1015.8 hPa | 0 mm | - | - | - |
| 1777991270 | 3.89° C | 52% | 1015.6 hPa | 0 mm | - | - | - |
| 1777990967 | 3.33° C | 54% | 1015.5 hPa | 0 mm | - | - | - |
| 1777990665 | 3.33° C | 56% | 1015.6 hPa | 0 mm | - | - | - |
| 1777990363 | 2.78° C | 56% | 1015.6 hPa | 0 mm | - | - | - |
* Rain latest hour (hover to see other rain measurements)
** Current wind speed in m/s (hover to see current wind gust speed)